TimeCDT,TemperatureF,Dew PointF,Humidity,Sea Level PressureIn,VisibilityMPH,Wind Direction,Wind SpeedMPH,Gust SpeedMPH,PrecipitationIn,Events,Conditions,WindDirDegrees,DateUTC
12:53 AM,82.9,69.1,63,29.91,10.0,SSE,5.8,-,N/A,,Clear,160,2013-08-06 05:53:00
1:53 AM,82.0,70.0,67,29.91,10.0,South,8.1,17.3,N/A,,Clear,170,2013-08-06 06:53:00
2:53 AM,80.1,69.1,69,29.91,10.0,SSE,8.1,-,N/A,,Clear,150,2013-08-06 07:53:00
3:53 AM,78.1,68.0,71,29.91,10.0,South,8.1,-,N/A,,Clear,170,2013-08-06 08:53:00
4:53 AM,77.0,68.0,74,29.91,10.0,South,8.1,-,N/A,,Clear,180,2013-08-06 09:53:00
5:53 AM,75.0,68.0,79,29.92,10.0,SSW,4.6,-,N/A,,Clear,200,2013-08-06 10:53:00
6:53 AM,75.0,68.0,79,29.92,10.0,South,4.6,-,N/A,,Clear,170,2013-08-06 11:53:00
7:53 AM,75.0,69.1,82,29.94,10.0,South,4.6,-,N/A,,Clear,170,2013-08-06 12:53:00
8:53 AM,77.0,70.0,79,29.94,10.0,SSW,12.7,-,N/A,,Partly Cloudy,200,2013-08-06 13:53:00
9:53 AM,81.0,71.1,72,29.94,9.0,South,13.8,20.7,N/A,,Clear,180,2013-08-06 14:53:00
10:53 AM,84.0,71.1,65,29.94,9.0,South,11.5,19.6,N/A,,Clear,180,2013-08-06 15:53:00
11:53 AM,88.0,71.1,57,29.94,10.0,South,13.8,21.9,N/A,,Clear,180,2013-08-06 16:53:00
12:53 PM,91.0,70.0,50,29.93,9.0,South,13.8,19.6,N/A,,Clear,190,2013-08-06 17:53:00
1:53 PM,93.9,68.0,43,29.89,10.0,South,12.7,18.4,N/A,,Clear,170,2013-08-06 18:53:00
2:53 PM,97.0,66.0,36,29.87,10.0,Variable,6.9,18.4,N/A,,Clear,0,2013-08-06 19:53:00
3:53 PM,98.1,63.0,31,29.85,10.0,South,8.1,17.3,N/A,,Clear,190,2013-08-06 20:53:00
4:53 PM,99.0,62.1,30,29.83,10.0,SSE,9.2,18.4,N/A,,Clear,160,2013-08-06 21:53:00
5:53 PM,99.0,60.1,28,29.82,10.0,South,11.5,18.4,N/A,,Clear,170,2013-08-06 22:53:00
6:53 PM,98.1,60.1,28,29.81,10.0,SSE,6.9,-,N/A,,Clear,160,2013-08-06 23:53:00
7:53 PM,95.0,60.1,31,29.81,10.0,SSE,5.8,-,N/A,,Clear,160,2013-08-07 00:53:00
8:53 PM,91.0,61.0,36,29.82,10.0,SSE,3.5,-,N/A,,Clear,160,2013-08-07 01:53:00
9:53 PM,89.1,60.1,38,29.83,10.0,SSE,3.5,-,N/A,,Clear,150,2013-08-07 02:53:00
10:53 PM,88.0,69.1,53,29.87,10.0,SSE,8.1,20.7,N/A,,Clear,160,2013-08-07 03:53:00
11:53 PM,86.0,70.0,59,29.89,10.0,SSE,9.2,-,N/A,,Clear,150,2013-08-07 04:53:00